SCP
0 0 0 0 0 0 0 0 0 0 0 0 0 0 0 0 0 0 0 0 0 0 0 0 0 0 0 0 0 0 0 0 0 0 0 0 0 0 0 0 0 0 0 0 0 0 0 0 0 0 0 0 0 0
0 0 0 0 0 0 0 0 0 0 0 0 0 0 0 0 0 0 0 0 0 0 0 0 0 0 0 0 0 0 0 0 0 0 0 0 0 0 0 0 0 0 0 0 0 0 0 0 0 0 0 0 0 0
0 0 0 0 0 0 0 0 0 0 0 0 0 0 0 0 0 0 0 0 0 0 0 0 0 0 0 -0 0 0 0 0 0 0 0 0 0 0 0 0 0 -0 0 0 0 0 0 0 -0 -0 0 0 0 0
0 0 0 0 0 0 0 0 0 0 0 0 0 0 0 0 0 0 0 0 0 0 0 0 0 0 0 0 -0 0 0 0 0 0 0 0 0 0 0 0 0 0 0 0 -0 -0 0 0 0 0 0 0 0 0
0 0 0 0 0 0 0 0 0 0 0 0 0 0 0 0 0 0 0 0 0 0 0 0 0 0 0 0 0 0 0 0 0 0 0 0 0 0 0 0 -0 -0 -0 -0 -0 -0 -0 -0 -0 -0 -0 -0 -0 -0
0 0 0 0 0 0 0 0 0 0 0 0 0 0 0 0 0 0 0 0 0 0 0 0 0 0 0 0 0 0 0 0 0 0 0 0 -0 0 0 0 0 0 0 0 -0 0 -0 -0 0 0 -0 -0 -0 -0
0 0 0 0 0 -0 0 0 0 0 0 0 0 0 0 0 0 0 0 0 0 0 0 0 0 0 0 0 0 0 0 0 0 0 0 0 0 0 0 0 0 0 0 0 0 0 0 0 0 0 0 0 0 0
0 0 0 -0 -0 0 0 0 0 0 0 0 0 0 0 0 0 0 0 0 0 0 0 0 0 0 0 0 0 0 0 0 0 0 0 0 0 0 0 0 0 0 0 0 0 0 0 0 0 0 0 0 0 0
0 0 0 -0 0 0 0 0 0 0 0 0 0 0 0 0 0 0 0 0 0 0 0 0 0 0 0 0 0 0 0 0 0 0 0 0 0 0 0 0 0 0 0 0 0 0 -0 0 0 0 0 0 0 0
0 0 0 0 0 0 0 0 0 0 0 0 0 0 0 0 0 0 0 0 0 0 0 0 0 0 0 0 0 0 0 0 0 0 0 0 0 0 0 0 0 0 0 0 0 -0 -0 -0 -0 -0 0 0 0 0
0 0 0 0 0 0 -0 0 0 0 0 0 0 0 0 0 0 0 0 0 0 0 0 0 0 0 0 0 0 0 0 0 0 0 0 0 0 0 0 0 0 0 0 0 0 -0 -0 0 0 -0 -0 -0 -0 0
0 0 0 0 0 0 0 0 0 0 0 0 0 0 0 0 0 0 0 0 0 0 0 0 0 0 0 0 0 0 0 0 0 0 0 0 0 0 0 0 0 0 -0 -0 -0 -0 -0 -0 -0 -0 0 -0 0 0
0 0 0 0 -0 0 0 0 0 0 0 0 0 0 0 0 0 0 0 0 0 0 0 0 0 0 0 0 0 0 0 0 0 0 0 0 0 0 0 0 -0 -0 -0 -0 -0 -0 -0 -0 -0 0 0 -0 -0 -0
0 0 -0 0 0 0 0 0 0 0 0 0 0 0 0 0 0 0 0 0 0 0 0 0 0 0 0 0 0 0 0 0 0 0 0 0 0 0 0 -0 -0 -0 -0 -0 -0 -0 -0 -0 -0 -0 -0 -0 -0 -0
0 -0 0 0 0 0 0 0 0 0 0 0 0 0 0 0 0 0 0 0 0 0 0 0 0 0 0 0 0 0 0 0 0 0 0 0 0 -0 -0 -0 -0 -0 -0 -0 -0 -0 -0 -0 -0 -0 0 0 0 0
0 0 0 0 0 0 0 0 0 0 0 0 0 0 0 0 0 0 0 0 0 0 0 0 0 0 0 0 0 0 0 0 0 0 0 0 -0 -0 -0 -0 -0 -0 -0 -0 -0 -0 -0 -0 0 0 0 0 0 0
0 0 0 0 0 0 0 0 0 0 0 0 0 0 0 0 0 0 0 0 0 0 0 0 0 0 0 0 0 0 0 0 0 0 0 -0 -0 -0 -0 -0 -0 -0 -0 -0 -0 -0 -0 0 0 0 0 0 0 0
0 0 0 0 0 0 0 0 0 0 0 0 0 0 0 0 0 0 0 0 0 0 0 0 0 0 0 0 0 0 0 0 0 0 0 -0 -0 -0 -0 -0 -0 -0 -0 0 -0 -0 -0 -0 -0 -0 -0 0 0 0
0 0 0 0 0 0 0 0 0 0 0 0 0 0 0 0 0 0 0 0 0 0 0 0 0 0 0 0 0 0 0 0 -0 -0 -0 -0 -0 -0 0 0 0 0 0 -0 -0 -0 -0 -0 0 0 -0 -0 -0 -0
0 0 0 0 0 0 0 0 0 0 0 0 0 0 0 0 0 0 0 0 0 0 0 0 0 0 0 0 0 0 -0 -0 -0 -0 -0 -0 -0 -0 0 0 0 -0 0 -0 -0 -0 -0 0 0 0 0 -0 -0 0
0 0 0 0 0 0 0 0 0 0 0 0 0 0 0 0 0 0 0 0 0 0 0 0 0 0 0 -0 -0 -0 -0 -0 -0 -0 -0 -0 -0 -0 -0 0 0 0 0 0 -0 -0 -0 -0 -0 0 0 0 0 0
0 0 0 0 0 0 0 0 0 0 0 0 0 0 0 0 0 0 0 0 0 0 0 0 -0 -0 -0 -0 -0 -0 0 0 -0 0 0 -0 -0 0 0 0 0 0 0 0 -0 -0 -0 -0 -0 -0 -0 -0 -0 -0
0 0 0 0 0 0 0 0 0 0 0 0 0 0 0 0 0 0 0 0 0 0 -0 -0 -0 -0 -0 -0 0 0 0 -0 0 0 0 0 0 0 0 0 0 0 0 0 0 0 0 -0 -0 -0 -0 -0 -0 -0
0 0 0 0 0 0 0 0 0 0 0 0 0 0 0 0 0 0 0 -0 -0 -0 -0 -0 0 -0 0 0 0 -0 -0 -0 0 0 0 0 0 0 0 0 0 0 0 0 0 0 0 0 0 0 0 -0 -0 -0
0 0 0 0 0 0 0 0 0 0 0 0 0 0 0 0 0 -0 -0 -0 -0 -0 0 -0 0 0 -0 -0 -0 0 0 0 0 0 0 0 0 0 0 0 0 0 0 0 0 0 0 0 0 0 0 0 0 0
-0 0 0 0 0 0 0 0 0 0 0 0 0 0 -0 -0 -0 -0 -0 -0 0 0 0 0 0 0 0 0 0 0 0 0 0 0 0 0 0 0 0 0 0 0 0 0 0 0 0 0 0 0 0 0 0 0
-0 0 0 0 0 0 0 0 0 0 0 0 0 0 -0 -0 -0 -0 -0 -0 0 0 0 0 0 0 0 0 0 0 0 0 0 0 0 0 0 0 0 0 0 0 0 0 0 0 0 0 0 0 0 0 0 0
0 0 0 0 0 0 0 0 0 0 0 0 -0 -0 -0 -0 -0 -0 -0 -0 -0 -0 0 0 0 0 0 0 0 0 0 0 0 -0 -0 -0 0 0 0 0 0 0 0 0 0 0 0 0 0 0 0 0 0 0
0 0 0 0 0 0 0 0 0 0 0 0 -0 -0 -0 -0 -0 -0 -0 -0 0 -0 -0 -0 0 -0 0 0 0 -0 -0 -0 -0 0 0 0 0 -0 0 0 0 0 0 0 0 0 0 0 0 0 0 0 0 0
0 0 0 0 0 0 0 0 0 0 0 0 -0 0 0 0 0 0 -0 -0 -0 0 -0 -0 -0 -0 -0 -0 -0 -0 -0 -0 -0 -0 -0 0 0 0 0 0 0 0 0 0 0 0 0 0 0 0 0 0 0 0
0 0 0 0 -0 -0 -0 0 0 0 0 0 0 0 0 0 0 -0 0 0 0 0 0 -0 -0 0 0 0 0 0 0 0 0 0 0 0 0 0 0 0 0 0 0 0 0 0 0 0 0 0 0 0 0 0
-0 0 -0 -0 -0 -0 -0 -0 -0 -0 -0 -0 -0 -0 -0 -0 -0 -0 0 0 0 0 0 0 0 0 0 0 0 0 0 0 0 0 0 0 0 0 0 0 0 0 0 0 0 0 0 0 0 0 0 0 0 0
0 0 0 0 0 0 -0 -0 -0 0 0 -0 -0 -0 -0 -0 -0 -0 0 0 0 0 0 0 0 0 0 0 0 0 0 0 0 0 0 0 0 0 0 0 0 0 0 0 0 0 0 0 0 0 0 0 0 0
Wind_Speed_500mb
55 54 52 49 50 52 52 51 52 54 51 50 51 54 55 49 51 50 58 51 52 40 69 63 67 48 38 26 13 17 18 7 6 10 15 23 22 28 37 57 61 56 25 26 26 40 54 31 39 60 61 66 66 58
57 55 52 52 52 53 53 52 56 55 54 53 52 53 58 58 52 54 62 56 55 61 37 24 30 42 44 45 40 22 23 23 12 8 6 8 10 9 12 11 21 32 26 14 21 16 21 29 21 44 48 35 40 44
63 64 61 58 57 55 56 57 56 56 56 59 60 57 56 60 56 52 62 59 54 53 62 64 58 71 57 58 49 44 44 38 15 19 9 7 14 6 10 17 34 18 12 8 25 22 35 54 59 45 37 50 63 73
61 60 66 66 65 61 62 59 54 52 54 58 60 63 60 58 59 56 59 58 57 23 12 26 41 40 52 46 40 45 54 41 44 32 19 14 16 10 17 16 23 24 31 37 51 59 55 64 85 79 97 84 80 67
55 59 60 61 62 62 62 58 53 55 57 59 62 66 63 57 56 58 61 60 61 54 11 12 18 32 48 45 45 38 40 47 44 23 16 18 17 22 20 26 28 28 39 29 37 52 43 51 71 89 90 93 91 82
60 60 59 59 58 61 58 58 55 57 59 62 64 66 61 61 52 48 45 68 72 75 23 9 23 34 45 50 48 45 50 43 37 26 14 25 42 30 20 28 35 60 70 76 54 89 102 105 105 107 94 89 88 82
60 59 58 59 62 60 60 55 56 57 58 61 63 61 58 57 51 56 20 6 6 36 15 8 9 23 49 44 33 34 33 32 31 27 17 28 32 45 28 35 47 78 85 83 77 61 58 64 50 71 82 85 85 87
59 60 59 58 54 53 50 53 55 56 58 61 61 53 51 49 48 54 66 61 41 32 21 8 6 7 17 15 11 19 21 25 22 25 29 19 34 24 25 42 45 32 44 39 46 49 44 64 83 69 75 82 85 89
58 57 57 55 52 51 46 50 53 51 55 53 47 44 41 34 33 48 44 39 58 50 7 5 5 5 15 19 15 9 15 11 21 17 23 23 18 15 10 11 21 32 31 45 63 62 46 43 71 86 77 91 66 76
58 60 54 54 52 51 49 50 50 47 48 45 38 21 10 17 36 23 13 11 15 12 11 4 11 12 18 18 5 4 9 7 8 11 19 11 25 46 15 15 24 36 41 46 56 54 78 84 66 84 91 87 78 86
60 59 54 54 49 50 45 52 45 40 42 36 29 18 16 14 23 13 13 13 7 6 11 13 24 16 14 10 10 14 6 6 7 10 9 9 12 4 19 25 32 38 42 47 48 60 63 72 89 92 108 88 85 87
54 56 52 50 47 43 43 38 35 27 23 10 13 20 20 16 15 11 7 5 9 10 9 7 7 14 10 13 8 10 8 7 13 2 7 11 5 9 23 40 46 50 59 71 65 75 70 72 81 89 93 102 100 99
50 49 48 44 43 38 36 29 29 23 25 21 12 14 12 8 16 10 13 8 7 8 12 9 6 7 8 15 8 7 11 11 2 7 13 15 9 22 44 52 57 55 58 64 74 68 72 79 80 80 90 91 88 88
46 45 43 34 36 32 29 31 27 23 13 5 5 6 10 10 10 10 8 4 5 2 2 5 6 9 10 8 8 8 10 3 8 17 34 4 23 46 58 57 59 69 66 70 70 72 73 74 78 82 78 76 76 77
36 40 32 27 26 36 31 23 20 24 15 9 6 7 10 4 1 1 2 7 4 3 2 4 7 7 6 7 7 8 7 11 12 23 5 20 45 50 62 69 72 73 73 71 75 76 78 76 76 80 70 65 60 50
30 30 28 25 22 23 23 24 19 17 8 8 9 5 3 3 4 5 5 6 6 5 4 2 6 6 14 8 12 14 10 18 16 5 28 45 52 61 65 72 76 76 74 80 78 76 73 72 68 63 53 44 33 20
29 26 37 36 30 29 23 19 14 11 9 7 4 5 8 11 7 5 5 5 10 6 4 4 11 11 4 7 9 4 6 7 19 38 41 43 57 67 75 74 71 74 76 73 72 69 67 61 51 41 41 33 24 17
17 32 33 29 27 23 20 14 11 11 7 6 2 5 8 10 7 7 7 10 6 5 6 3 7 6 7 10 7 6 11 33 36 40 48 58 65 66 64 67 68 68 66 65 62 60 55 49 46 41 33 26 19 20
36 25 17 19 24 14 11 11 6 5 8 9 13 12 12 13 15 10 6 7 7 5 4 5 1 2 4 4 8 30 35 35 50 54 55 57 55 59 64 62 61 56 54 54 49 47 41 34 33 32 26 23 24 23
26 24 24 26 30 9 6 6 7 11 5 7 10 10 10 9 6 16 19 14 9 7 9 6 3 4 9 27 31 38 41 43 47 52 51 56 56 56 55 55 51 43 44 39 35 36 34 30 32 31 28 28 28 30
13 8 15 21 13 7 9 7 10 9 13 12 14 6 9 7 7 9 10 13 10 7 3 3 10 23 30 35 32 34 38 36 39 39 48 53 55 47 50 43 35 30 35 37 38 39 40 40 35 33 33 35 35 35
15 22 19 11 8 8 11 11 10 8 9 13 8 7 7 4 5 6 5 11 6 3 5 14 27 31 32 28 28 26 29 32 29 29 28 29 35 42 45 40 38 37 37 39 39 40 39 38 38 40 42 43 43 44
26 18 10 8 9 11 6 8 6 10 5 6 6 5 5 4 4 4 4 4 1 8 14 17 21 17 17 18 17 19 19 18 19 20 20 18 21 28 39 43 43 44 47 46 44 44 45 43 45 47 48 50 52 54
19 11 14 13 18 5 6 10 8 7 7 4 4 5 3 3 2 2 4 1 4 9 11 13 16 13 13 18 20 24 23 23 24 26 24 24 31 38 46 52 52 48 48 48 49 50 50 51 49 51 52 53 55 55
10 19 14 11 14 8 9 7 8 5 5 5 3 4 3 3 2 1 2 2 1 6 9 9 12 14 16 18 21 24 25 29 33 37 37 37 36 40 45 49 53 55 54 55 57 54 52 50 50 50 51 51 49 48
16 15 11 9 9 7 6 5 6 6 4 3 4 4 3 1 2 4 4 6 4 4 8 12 13 14 17 17 17 18 19 22 25 29 35 38 39 39 38 41 46 50 51 51 49 49 48 46 45 44 44 43 41 38
10 8 10 12 5 6 7 6 4 3 4 3 3 4 2 3 6 3 8 11 10 7 8 11 12 14 16 19 20 20 20 17 15 15 20 24 31 34 35 36 37 37 35 35 36 37 38 37 37 36 35 32 32 30
8 10 6 10 8 9 6 3 3 1 1 1 2 4 3 5 4 7 12 16 14 10 5 3 5 9 12 16 19 19 19 20 14 13 12 16 15 26 28 28 28 27 28 29 28 26 26 26 26 25 25 25 24 23
9 10 4 7 5 5 3 2 2 2 2 4 2 3 4 6 7 10 17 18 16 12 7 3 4 9 15 19 19 20 18 20 20 15 16 19 21 25 27 28 28 27 26 24 26 28 28 27 25 23 23 22 21 20
9 11 3 3 4 2 1 1 2 4 4 7 7 8 8 8 8 16 20 22 20 16 13 10 9 11 17 19 17 17 16 14 18 21 23 24 27 28 30 31 31 31 30 30 28 26 25 24 23 24 24 24 23 23
9 5 2 2 3 2 5 11 9 7 7 6 8 8 9 9 9 18 25 25 24 24 22 18 15 14 16 15 19 20 18 19 23 24 25 25 27 29 32 34 36 36 35 35 35 34 33 31 31 30 29 28 28 28
8 6 2 3 1 3 5 10 3 3 4 4 4 6 7 7 8 6 8 23 34 31 25 23 22 15 19 18 19 22 26 27 25 25 27 30 31 33 36 36 38 40 40 39 39 39 38 38 37 36 36 34 32 32
4 4 4 3 3 3 8 15 7 7 4 4 4 4 4 6 9 5 6 7 11 15 19 21 23 24 25 25 27 30 31 32 31 31 34 38 41 43 46 47 48 49 49 48 46 45 43 43 42 41 41 41 40 39
Wind_Direction_500mb
276 275 275 273 277 281 282 282 281 277 278 281 281 278 277 274 263 260 262 259 248 250 265 273 269 280 276 279 283 5 337 196 274 260 249 245 253 245 244 245 246 234 220 221 236 243 250 225 240 236 247 257 264 270
273 273 274 276 274 276 281 283 281 279 272 273 275 275 271 271 267 261 261 261 264 250 255 254 264 251 246 256 261 261 257 283 285 299 318 327 320 305 0 320 348 261 282 306 288 288 337 10 338 329 352 2 335 340
269 273 274 275 276 274 279 280 278 277 276 275 272 272 274 269 266 259 259 263 261 260 279 254 247 259 263 252 243 246 247 244 258 296 316 292 260 343 295 287 294 279 331 287 322 342 322 310 315 334 351 352 332 321
274 271 266 271 274 276 275 275 270 277 277 278 275 269 267 270 264 261 258 258 254 255 264 269 273 253 251 251 236 239 247 263 271 273 267 270 275 248 275 289 298 284 305 293 289 288 290 297 298 298 302 301 299 298
275 268 270 270 267 270 273 273 275 276 277 278 276 271 266 265 267 261 261 257 251 243 280 272 233 245 263 258 247 231 230 251 255 257 251 257 271 280 266 266 264 272 278 274 280 296 304 301 301 305 306 300 298 296
274 271 270 271 269 272 273 267 269 274 277 278 276 272 264 258 263 262 264 259 252 249 249 251 259 254 256 253 247 239 236 243 243 242 250 243 251 263 270 267 274 278 278 275 278 283 287 289 292 294 293 294 295 296
275 275 275 273 274 269 267 268 272 274 277 278 276 272 262 256 249 237 238 207 171 217 237 238 231 247 240 241 251 249 247 240 229 236 242 258 262 262 266 269 277 272 277 288 292 309 298 295 310 301 300 299 300 297
275 272 273 274 273 272 266 269 273 274 278 276 272 264 261 252 251 248 246 245 250 232 241 274 248 261 237 232 240 218 220 219 228 250 255 253 264 269 270 269 288 329 331 316 324 321 301 298 301 300 298 300 298 293
278 275 272 273 272 269 266 274 274 274 277 277 267 260 245 236 237 246 256 250 237 220 243 209 209 257 179 227 240 232 223 244 249 245 251 262 255 241 341 331 343 344 341 316 316 315 319 311 306 304 305 300 297 290
276 276 272 272 265 267 268 274 272 272 275 275 256 205 199 208 225 236 218 221 215 247 279 227 222 235 204 233 209 233 201 229 232 234 256 235 253 260 67 33 350 335 329 329 326 324 324 313 308 302 298 296 294 292
272 271 265 266 260 264 263 267 266 275 267 266 200 176 191 175 173 193 205 204 173 230 225 239 235 244 240 218 212 217 207 231 238 232 230 239 254 44 7 347 336 328 319 316 303 298 300 297 300 302 300 299 298 294
270 269 263 257 257 265 262 256 250 251 240 257 149 151 170 185 195 211 174 124 211 225 205 215 242 214 212 192 199 187 225 218 242 114 225 253 253 58 351 334 328 328 323 319 316 309 306 301 298 297 296 299 302 304
268 264 260 249 257 253 244 239 234 243 244 239 207 170 173 158 219 208 186 199 221 197 203 198 212 217 194 213 217 216 222 226 116 222 251 267 81 352 338 330 321 322 318 311 310 307 305 303 304 301 299 301 308 305
261 266 248 248 250 235 223 224 219 219 203 232 320 200 200 172 221 202 207 180 169 200 200 217 247 206 196 194 234 226 228 240 239 248 252 282 360 329 327 324 322 320 320 316 312 310 308 309 307 306 308 313 307 308
256 265 233 244 231 220 204 205 200 196 197 207 184 235 215 206 130 352 162 132 57 128 262 217 251 238 207 229 219 244 239 233 238 258 339 342 327 323 322 325 323 319 320 317 317 316 315 315 313 314 322 316 314 315
264 243 224 215 196 175 172 184 182 182 195 198 216 238 171 246 188 115 54 92 15 326 256 246 255 225 222 218 205 216 240 248 271 5 324 321 318 319 319 320 320 321 317 318 319 316 316 319 319 321 321 317 322 333
263 200 181 177 184 184 195 201 184 185 200 189 159 84 57 56 40 48 24 12 336 326 237 247 219 216 338 239 239 17 292 357 334 317 314 313 311 314 320 319 318 317 319 320 318 322 325 328 330 334 339 345 1 16
255 153 180 194 202 202 192 178 183 179 171 41 251 63 76 63 76 52 12 351 355 318 300 296 315 237 242 254 266 18 328 317 311 309 311 312 317 322 320 315 316 319 324 324 326 328 330 333 344 351 353 1 27 59
185 166 170 168 175 164 155 177 178 124 72 95 99 81 84 86 61 56 48 36 60 55 324 339 298 278 325 344 320 319 318 315 312 314 311 316 322 325 325 321 323 329 333 333 338 338 339 343 351 1 11 27 41 63
153 170 166 171 171 161 130 98 105 96 102 106 96 96 87 81 92 51 45 45 51 38 38 35 62 325 290 302 304 300 301 306 309 312 315 322 334 330 331 331 334 336 338 353 2 2 12 24 31 35 43 53 57 64
200 165 173 163 152 112 95 75 73 91 116 94 119 82 92 82 54 38 30 29 59 42 15 306 298 304 306 310 312 313 309 306 300 297 299 307 330 344 340 348 352 6 2 12 10 17 29 33 37 48 58 64 69 77
183 162 140 131 95 81 79 58 88 92 87 119 102 90 81 69 49 39 26 47 63 23 313 309 310 314 318 326 323 314 310 312 314 312 311 321 338 349 349 5 20 28 30 26 33 36 40 45 54 62 67 72 77 82
135 134 95 71 91 57 25 56 73 26 103 104 116 90 68 79 73 72 81 67 48 332 320 326 334 330 319 331 339 344 342 343 344 348 0 9 22 24 26 34 36 39 44 44 49 52 55 59 64 68 72 76 78 81
112 67 39 42 32 59 26 35 36 54 58 64 74 101 82 68 122 73 93 144 333 342 357 5 19 29 37 33 26 27 35 49 45 44 45 50 52 50 51 46 50 52 54 55 55 58 61 63 67 70 73 76 77 79
94 17 25 22 22 32 43 30 13 46 72 34 104 127 90 339 139 100 140 167 332 8 17 34 43 45 44 45 46 45 44 52 53 52 52 55 59 63 59 56 51 49 53 54 54 54 56 58 60 63 66 66 69 72
69 11 33 8 18 41 18 63 39 34 13 73 50 350 327 195 181 201 182 180 169 109 69 60 53 53 42 32 27 27 31 38 43 44 45 44 42 41 40 40 44 45 46 48 48 49 51 52 54 56 59 62 63 65
66 17 26 38 64 92 86 68 58 52 61 62 353 325 248 212 226 191 181 180 168 148 110 83 64 52 44 39 34 23 15 5 353 1 12 21 26 25 25 25 26 27 28 32 37 40 42 43 46 49 52 55 57 58
81 36 57 356 47 44 108 67 55 73 239 233 284 235 227 219 209 181 188 183 172 167 150 79 30 15 9 7 7 7 10 5 355 358 345 357 0 12 14 13 13 11 6 7 12 15 18 19 20 23 26 30 34 35
51 8 28 31 40 49 59 128 200 228 253 196 234 259 265 253 251 208 189 186 188 192 204 238 325 351 349 350 348 350 350 1 10 10 9 11 10 6 6 3 0 359 359 1 358 355 355 356 357 357 357 356 354 349
13 8 73 77 89 13 68 206 329 305 269 247 265 281 279 270 245 213 206 205 209 217 230 245 278 313 335 340 346 347 349 352 358 360 358 354 352 352 353 352 352 352 351 349 348 348 346 343 342 342 341 340 338 335
349 357 83 72 127 118 330 317 295 266 263 262 263 259 282 300 275 241 230 227 229 236 243 249 267 291 316 331 337 345 352 346 343 339 338 342 347 349 350 350 348 347 344 340 338 337 336 334 333 331 329 328 326 323
9 43 76 70 290 334 347 356 289 268 256 261 259 282 299 295 277 253 254 235 237 245 250 255 264 280 290 298 317 327 329 331 328 324 325 328 331 332 332 334 334 334 333 332 330 326 322 319 317 315 312 310 308 305
336 8 29 346 1 18 345 347 11 337 252 262 255 272 257 256 253 264 290 281 262 253 248 253 264 272 283 291 298 305 309 312 313 311 312 313 315 317 317 317 318 319 320 319 318 314 311 309 307 305 304 303 301 299
Wind_Speed_850mb
55 54 52 49 50 52 52 51 52 54 51 50 51 54 55 49 51 50 58 51 52 40 69 63 67 48 38 26 13 17 18 7 6 10 15 23 22 28 37 57 61 56 25 26 26 40 54 31 39 60 61 66 66 58
57 55 52 52 52 53 53 52 56 55 54 53 52 53 58 58 52 54 62 56 55 61 37 24 30 42 44 45 40 22 23 23 12 8 6 8 10 9 12 11 21 32 26 14 21 16 21 29 21 44 48 35 40 44
63 64 61 58 57 55 56 57 56 56 56 59 60 57 56 60 56 52 62 59 54 53 62 64 58 71 57 58 49 44 44 38 15 19 9 7 14 6 10 17 34 18 12 8 25 22 35 54 59 45 37 50 63 73
61 60 66 66 65 61 62 59 54 52 54 58 60 63 60 58 59 56 59 58 57 23 12 26 41 40 52 46 40 45 54 41 44 32 19 14 16 10 17 16 23 24 31 37 51 59 55 64 85 79 97 84 80 67
55 59 60 61 62 62 62 58 53 55 57 59 62 66 63 57 56 58 61 60 61 54 11 12 18 32 48 45 45 38 40 47 44 23 16 18 17 22 20 26 28 28 39 29 37 52 43 51 71 89 90 93 91 82
60 60 59 59 58 61 58 58 55 57 59 62 64 66 61 61 52 48 45 68 72 75 23 9 23 34 45 50 48 45 50 43 37 26 14 25 42 30 20 28 35 60 70 76 54 89 102 105 105 107 94 89 88 82
60 59 58 59 62 60 60 55 56 57 58 61 63 61 58 57 51 56 20 6 6 36 15 8 9 23 49 44 33 34 33 32 31 27 17 28 32 45 28 35 47 78 85 83 77 61 58 64 50 71 82 85 85 87
59 60 59 58 54 53 50 53 55 56 58 61 61 53 51 49 48 54 66 61 41 32 21 8 6 7 17 15 11 19 21 25 22 25 29 19 34 24 25 42 45 32 44 39 46 49 44 64 83 69 75 82 85 89
58 57 57 55 52 51 46 50 53 51 55 53 47 44 41 34 33 48 44 39 58 50 7 5 5 5 15 19 15 9 15 11 21 17 23 23 18 15 10 11 21 32 31 45 63 62 46 43 71 86 77 91 66 76
58 60 54 54 52 51 49 50 50 47 48 45 38 21 10 17 36 23 13 11 15 12 11 4 11 12 18 18 5 4 9 7 8 11 19 11 25 46 15 15 24 36 41 46 56 54 78 84 66 84 91 87 78 86
60 59 54 54 49 50 45 52 45 40 42 36 29 18 16 14 23 13 13 13 7 6 11 13 24 16 14 10 10 14 6 6 7 10 9 9 12 4 19 25 32 38 42 47 48 60 63 72 89 92 108 88 85 87
54 56 52 50 47 43 43 38 35 27 23 10 13 20 20 16 15 11 7 5 9 10 9 7 7 14 10 13 8 10 8 7 13 2 7 11 5 9 23 40 46 50 59 71 65 75 70 72 81 89 93 102 100 99
50 49 48 44 43 38 36 29 29 23 25 21 12 14 12 8 16 10 13 8 7 8 12 9 6 7 8 15 8 7 11 11 2 7 13 15 9 22 44 52 57 55 58 64 74 68 72 79 80 80 90 91 88 88
46 45 43 34 36 32 29 31 27 23 13 5 5 6 10 10 10 10 8 4 5 2 2 5 6 9 10 8 8 8 10 3 8 17 34 4 23 46 58 57 59 69 66 70 70 72 73 74 78 82 78 76 76 77
36 40 32 27 26 36 31 23 20 24 15 9 6 7 10 4 1 1 2 7 4 3 2 4 7 7 6 7 7 8 7 11 12 23 5 20 45 50 62 69 72 73 73 71 75 76 78 76 76 80 70 65 60 50
30 30 28 25 22 23 23 24 19 17 8 8 9 5 3 3 4 5 5 6 6 5 4 2 6 6 14 8 12 14 10 18 16 5 28 45 52 61 65 72 76 76 74 80 78 76 73 72 68 63 53 44 33 20
29 26 37 36 30 29 23 19 14 11 9 7 4 5 8 11 7 5 5 5 10 6 4 4 11 11 4 7 9 4 6 7 19 38 41 43 57 67 75 74 71 74 76 73 72 69 67 61 51 41 41 33 24 17
17 32 33 29 27 23 20 14 11 11 7 6 2 5 8 10 7 7 7 10 6 5 6 3 7 6 7 10 7 6 11 33 36 40 48 58 65 66 64 67 68 68 66 65 62 60 55 49 46 41 33 26 19 20
36 25 17 19 24 14 11 11 6 5 8 9 13 12 12 13 15 10 6 7 7 5 4 5 1 2 4 4 8 30 35 35 50 54 55 57 55 59 64 62 61 56 54 54 49 47 41 34 33 32 26 23 24 23
26 24 24 26 30 9 6 6 7 11 5 7 10 10 10 9 6 16 19 14 9 7 9 6 3 4 9 27 31 38 41 43 47 52 51 56 56 56 55 55 51 43 44 39 35 36 34 30 32 31 28 28 28 30
13 8 15 21 13 7 9 7 10 9 13 12 14 6 9 7 7 9 10 13 10 7 3 3 10 23 30 35 32 34 38 36 39 39 48 53 55 47 50 43 35 30 35 37 38 39 40 40 35 33 33 35 35 35
15 22 19 11 8 8 11 11 10 8 9 13 8 7 7 4 5 6 5 11 6 3 5 14 27 31 32 28 28 26 29 32 29 29 28 29 35 42 45 40 38 37 37 39 39 40 39 38 38 40 42 43 43 44
26 18 10 8 9 11 6 8 6 10 5 6 6 5 5 4 4 4 4 4 1 8 14 17 21 17 17 18 17 19 19 18 19 20 20 18 21 28 39 43 43 44 47 46 44 44 45 43 45 47 48 50 52 54
19 11 14 13 18 5 6 10 8 7 7 4 4 5 3 3 2 2 4 1 4 9 11 13 16 13 13 18 20 24 23 23 24 26 24 24 31 38 46 52 52 48 48 48 49 50 50 51 49 51 52 53 55 55
10 19 14 11 14 8 9 7 8 5 5 5 3 4 3 3 2 1 2 2 1 6 9 9 12 14 16 18 21 24 25 29 33 37 37 37 36 40 45 49 53 55 54 55 57 54 52 50 50 50 51 51 49 48
16 15 11 9 9 7 6 5 6 6 4 3 4 4 3 1 2 4 4 6 4 4 8 12 13 14 17 17 17 18 19 22 25 29 35 38 39 39 38 41 46 50 51 51 49 49 48 46 45 44 44 43 41 38
10 8 10 12 5 6 7 6 4 3 4 3 3 4 2 3 6 3 8 11 10 7 8 11 12 14 16 19 20 20 20 17 15 15 20 24 31 34 35 36 37 37 35 35 36 37 38 37 37 36 35 32 32 30
8 10 6 10 8 9 6 3 3 1 1 1 2 4 3 5 4 7 12 16 14 10 5 3 5 9 12 16 19 19 19 20 14 13 12 16 15 26 28 28 28 27 28 29 28 26 26 26 26 25 25 25 24 23
9 10 4 7 5 5 3 2 2 2 2 4 2 3 4 6 7 10 17 18 16 12 7 3 4 9 15 19 19 20 18 20 20 15 16 19 21 25 27 28 28 27 26 24 26 28 28 27 25 23 23 22 21 20
9 11 3 3 4 2 1 1 2 4 4 7 7 8 8 8 8 16 20 22 20 16 13 10 9 11 17 19 17 17 16 14 18 21 23 24 27 28 30 31 31 31 30 30 28 26 25 24 23 24 24 24 23 23
9 5 2 2 3 2 5 11 9 7 7 6 8 8 9 9 9 18 25 25 24 24 22 18 15 14 16 15 19 20 18 19 23 24 25 25 27 29 32 34 36 36 35 35 35 34 33 31 31 30 29 28 28 28
8 6 2 3 1 3 5 10 3 3 4 4 4 6 7 7 8 6 8 23 34 31 25 23 22 15 19 18 19 22 26 27 25 25 27 30 31 33 36 36 38 40 40 39 39 39 38 38 37 36 36 34 32 32
4 4 4 3 3 3 8 15 7 7 4 4 4 4 4 6 9 5 6 7 11 15 19 21 23 24 25 25 27 30 31 32 31 31 34 38 41 43 46 47 48 49 49 48 46 45 43 43 42 41 41 41 40 39
Wind_Direction_850mb
276 275 275 273 277 281 282 282 281 277 278 281 281 278 277 274 263 260 262 259 248 250 265 273 269 280 276 279 283 5 337 196 274 260 249 245 253 245 244 245 246 234 220 221 236 243 250 225 240 236 247 257 264 270
273 273 274 276 274 276 281 283 281 279 272 273 275 275 271 271 267 261 261 261 264 250 255 254 264 251 246 256 261 261 257 283 285 299 318 327 320 305 0 320 348 261 282 306 288 288 337 10 338 329 352 2 335 340
269 273 274 275 276 274 279 280 278 277 276 275 272 272 274 269 266 259 259 263 261 260 279 254 247 259 263 252 243 246 247 244 258 296 316 292 260 343 295 287 294 279 331 287 322 342 322 310 315 334 351 352 332 321
274 271 266 271 274 276 275 275 270 277 277 278 275 269 267 270 264 261 258 258 254 255 264 269 273 253 251 251 236 239 247 263 271 273 267 270 275 248 275 289 298 284 305 293 289 288 290 297 298 298 302 301 299 298
275 268 270 270 267 270 273 273 275 276 277 278 276 271 266 265 267 261 261 257 251 243 280 272 233 245 263 258 247 231 230 251 255 257 251 257 271 280 266 266 264 272 278 274 280 296 304 301 301 305 306 300 298 296
274 271 270 271 269 272 273 267 269 274 277 278 276 272 264 258 263 262 264 259 252 249 249 251 259 254 256 253 247 239 236 243 243 242 250 243 251 263 270 267 274 278 278 275 278 283 287 289 292 294 293 294 295 296
275 275 275 273 274 269 267 268 272 274 277 278 276 272 262 256 249 237 238 207 171 217 237 238 231 247 240 241 251 249 247 240 229 236 242 258 262 262 266 269 277 272 277 288 292 309 298 295 310 301 300 299 300 297
275 272 273 274 273 272 266 269 273 274 278 276 272 264 261 252 251 248 246 245 250 232 241 274 248 261 237 232 240 218 220 219 228 250 255 253 264 269 270 269 288 329 331 316 324 321 301 298 301 300 298 300 298 293
278 275 272 273 272 269 266 274 274 274 277 277 267 260 245 236 237 246 256 250 237 220 243 209 209 257 179 227 240 232 223 244 249 245 251 262 255 241 341 331 343 344 341 316 316 315 319 311 306 304 305 300 297 290
276 276 272 272 265 267 268 274 272 272 275 275 256 205 199 208 225 236 218 221 215 247 279 227 222 235 204 233 209 233 201 229 232 234 256 235 253 260 67 33 350 335 329 329 326 324 324 313 308 302 298 296 294 292
272 271 265 266 260 264 263 267 266 275 267 266 200 176 191 175 173 193 205 204 173 230 225 239 235 244 240 218 212 217 207 231 238 232 230 239 254 44 7 347 336 328 319 316 303 298 300 297 300 302 300 299 298 294
270 269 263 257 257 265 262 256 250 251 240 257 149 151 170 185 195 211 174 124 211 225 205 215 242 214 212 192 199 187 225 218 242 114 225 253 253 58 351 334 328 328 323 319 316 309 306 301 298 297 296 299 302 304
268 264 260 249 257 253 244 239 234 243 244 239 207 170 173 158 219 208 186 199 221 197 203 198 212 217 194 213 217 216 222 226 116 222 251 267 81 352 338 330 321 322 318 311 310 307 305 303 304 301 299 301 308 305
261 266 248 248 250 235 223 224 219 219 203 232 320 200 200 172 221 202 207 180 169 200 200 217 247 206 196 194 234 226 228 240 239 248 252 282 360 329 327 324 322 320 320 316 312 310 308 309 307 306 308 313 307 308
256 265 233 244 231 220 204 205 200 196 197 207 184 235 215 206 130 352 162 132 57 128 262 217 251 238 207 229 219 244 239 233 238 258 339 342 327 323 322 325 323 319 320 317 317 316 315 315 313 314 322 316 314 315
264 243 224 215 196 175 172 184 182 182 195 198 216 238 171 246 188 115 54 92 15 326 256 246 255 225 222 218 205 216 240 248 271 5 324 321 318 319 319 320 320 321 317 318 319 316 316 319 319 321 321 317 322 333
263 200 181 177 184 184 195 201 184 185 200 189 159 84 57 56 40 48 24 12 336 326 237 247 219 216 338 239 239 17 292 357 334 317 314 313 311 314 320 319 318 317 319 320 318 322 325 328 330 334 339 345 1 16
255 153 180 194 202 202 192 178 183 179 171 41 251 63 76 63 76 52 12 351 355 318 300 296 315 237 242 254 266 18 328 317 311 309 311 312 317 322 320 315 316 319 324 324 326 328 330 333 344 351 353 1 27 59
185 166 170 168 175 164 155 177 178 124 72 95 99 81 84 86 61 56 48 36 60 55 324 339 298 278 325 344 320 319 318 315 312 314 311 316 322 325 325 321 323 329 333 333 338 338 339 343 351 1 11 27 41 63
153 170 166 171 171 161 130 98 105 96 102 106 96 96 87 81 92 51 45 45 51 38 38 35 62 325 290 302 304 300 301 306 309 312 315 322 334 330 331 331 334 336 338 353 2 2 12 24 31 35 43 53 57 64
200 165 173 163 152 112 95 75 73 91 116 94 119 82 92 82 54 38 30 29 59 42 15 306 298 304 306 310 312 313 309 306 300 297 299 307 330 344 340 348 352 6 2 12 10 17 29 33 37 48 58 64 69 77
183 162 140 131 95 81 79 58 88 92 87 119 102 90 81 69 49 39 26 47 63 23 313 309 310 314 318 326 323 314 310 312 314 312 311 321 338 349 349 5 20 28 30 26 33 36 40 45 54 62 67 72 77 82
135 134 95 71 91 57 25 56 73 26 103 104 116 90 68 79 73 72 81 67 48 332 320 326 334 330 319 331 339 344 342 343 344 348 0 9 22 24 26 34 36 39 44 44 49 52 55 59 64 68 72 76 78 81
112 67 39 42 32 59 26 35 36 54 58 64 74 101 82 68 122 73 93 144 333 342 357 5 19 29 37 33 26 27 35 49 45 44 45 50 52 50 51 46 50 52 54 55 55 58 61 63 67 70 73 76 77 79
94 17 25 22 22 32 43 30 13 46 72 34 104 127 90 339 139 100 140 167 332 8 17 34 43 45 44 45 46 45 44 52 53 52 52 55 59 63 59 56 51 49 53 54 54 54 56 58 60 63 66 66 69 72
69 11 33 8 18 41 18 63 39 34 13 73 50 350 327 195 181 201 182 180 169 109 69 60 53 53 42 32 27 27 31 38 43 44 45 44 42 41 40 40 44 45 46 48 48 49 51 52 54 56 59 62 63 65
66 17 26 38 64 92 86 68 58 52 61 62 353 325 248 212 226 191 181 180 168 148 110 83 64 52 44 39 34 23 15 5 353 1 12 21 26 25 25 25 26 27 28 32 37 40 42 43 46 49 52 55 57 58
81 36 57 356 47 44 108 67 55 73 239 233 284 235 227 219 209 181 188 183 172 167 150 79 30 15 9 7 7 7 10 5 355 358 345 357 0 12 14 13 13 11 6 7 12 15 18 19 20 23 26 30 34 35
51 8 28 31 40 49 59 128 200 228 253 196 234 259 265 253 251 208 189 186 188 192 204 238 325 351 349 350 348 350 350 1 10 10 9 11 10 6 6 3 0 359 359 1 358 355 355 356 357 357 357 356 354 349
13 8 73 77 89 13 68 206 329 305 269 247 265 281 279 270 245 213 206 205 209 217 230 245 278 313 335 340 346 347 349 352 358 360 358 354 352 352 353 352 352 352 351 349 348 348 346 343 342 342 341 340 338 335
349 357 83 72 127 118 330 317 295 266 263 262 263 259 282 300 275 241 230 227 229 236 243 249 267 291 316 331 337 345 352 346 343 339 338 342 347 349 350 350 348 347 344 340 338 337 336 334 333 331 329 328 326 323
9 43 76 70 290 334 347 356 289 268 256 261 259 282 299 295 277 253 254 235 237 245 250 255 264 280 290 298 317 327 329 331 328 324 325 328 331 332 332 334 334 334 333 332 330 326 322 319 317 315 312 310 308 305
336 8 29 346 1 18 345 347 11 337 252 262 255 272 257 256 253 264 290 281 262 253 248 253 264 272 283 291 298 305 309 312 313 311 312 313 315 317 317 317 318 319 320 319 318 314 311 309 307 305 304 303 301 299